Showing default

TIANZHOU-9, 64786

Orbit data source: Space-Track

TIANZHOU-9, 64786 is a payload satellite owned by ZZHGB (CN) in LEO that was launched on Mon, 14 Jul 2025 UTC via a CHANG ZHENG 7 launch vehicle from the Wenchang Satellite Launch Center (WSC). Payload-class satellites include a variety of spacecraft equipped with specific instruments for various scientific and technological missions. These include communications satellites like Starlink; space stations such as the ISS; scientific satellites like the Hubble; Earth observation satellites from companies like Planet Labs, Umbra, and HawkEye 360; GPS; miniature CubeSats for education and research; and military/defense satellites.

Loading next visibility...
Identifier
64786, 2025-149A
Orbit
LEO
Country
Flag of CNCN / PRC
Related business
None
Manufacturer
CAST
Mission
Operational spacecraft
Bus & Motor
TIANZHOU, Unknown motor
Mass
13,200 kg wet, 6,000 kg dry
Launch date (UTC)
2025-07-14 (2 months ago)
Launch vehicle
CHANG ZHENG 7
Launch site
Wenchang Satellite Launch Center (WSC)
Object type
Payload
Rocket body
Debris
Shape & HBR
Unknown
Radar Cross Section
Large (>1 m²)

Expand to show TLE details & history
Last TLE update: 6 hours ago

TLE from 6 hours ago
0 TIANZHOU-9
1 64786U 25149A   25243.57626944  .00028697  00000-0  36413-3 0  9993
2 64786  41.4648 283.7558 0006447 266.8536  93.1564 15.58770976  5115
Epoch: 2025-08-31T13:49Z
TLE epoch observation values (Epoch: 2025-08-31T13:49:49.679Z)
Latitude
-0.00005°
Longitude
96.30452°
Altitude
391.055 km
Speed
7.677 km/s
True Right ascension
18h 55m 01s
True Declination
0° 00' 00"
Sunlit
Object was in full shadow at epoch
Visualization orbit readout
Latitude
Unknown
Longitude
Unknown
Altitude
Unknown
Speed
Unknown
Apparent Right ascension
Unknown
Apparent Declination
Unknown
Sunlit
N/A
Visualization observer readout
Local Sidereal Time
11:26:38
Azimuth
Unknown
Elevation
Unknown
Doppler factor
Unknown
Orbital elements
Apogee altitude
397.81 km
Perigee altitude
389.079 km
Semi-major axis
6,771.582 km
Eccentricity
0.00064
Inclination
41.4648°
RAAN
283.7558°
Arg. of periapsis
266.8536°
True anomaly
93.23016°
Mean anomaly
93.1564°
Eccentric anomaly
93.19328°
Mean motion
3.895 °/min
Orbital period
92.43 mins
BSTAR
0.00036413
Loading maneuver chart data...
Computing Atmospheric mass density...
Loading historical data...
Loading historical data...
Loading historical data...
Loading historical data...
Loading historical data...
Loading historical data...
Loading historical data...
Other satellites on launch #149 in the year 2025 (2025-07-14 UTC)

Documentation

Showing up to 5 results
|